Akron, OH

4:24 AM EDT on June 29, 2017 (GMT -0400)
Akron Fulton International

Weather History for KAKR - January, 2014

Change the Weather History Date:

Friday, January 3, 2014

  Actual Average (KCAK) Record (KCAK)
Temperature  
Mean Temperature 10 °F -  
Max Temperature 14 °F 36 °F 60 °F (1897)
Min Temperature 7 °F 22 °F -6 °F (1979)
Degree Days  
Heating Degree Days 54    
Moisture  
Dew Point 4 °F    
Average Humidity 76    
Maximum Humidity 85    
Minimum Humidity 59    
Precipitation  
Precipitation 0.00 in - - ()
Sea Level Pressure  
Sea Level Pressure 30.28 in    
Wind  
Wind Speed 11 mph (NW)    
Max Wind Speed 16 mph    
Max Gust Speed 25 mph    
Visibility 4 miles    
Events Fog , Snow    
Averages and records for this station are not official NWS values.
T = Trace of Precipitation, MM = Missing Value Source: NWS Daily Summary

Daily Weather History Graph

Daily Weather History Graph

Search for Another Location

Airport or City:

Trip Planner

Search our weather history database for the weather conditions in past years. The results will help you decide how hot, cold, wet, or windy it might be!

Date:

Astronomy

Jan. 03, 2014 Rise Set
Actual Time 7:51 AM EST 5:10 PM EST
Civil Twilight 7:20 AM EST 5:40 PM EST
Nautical Twilight 6:45 AM EST 6:15 PM EST
Astronomical Twilight 6:12 AM EST 6:48 PM EST
Moon 9:14 AM EST (1/3) 8:19 PM EST (1/3)
Length of Visible Light 10h 20m
Length of Day
9h 18m
Waxing Crescent, 8% of the Moon is Illuminated
Jan 3
Waxing Crescent
Jan 7
First Quarter
Jan 15
Full
Jan 24
Last Quarter
Jan 30
New

Hourly Weather History & Observations

Time (EST) Temp. Windchill Dew Point Humidity Pressure Visibility Wind Dir Wind Speed Gust Speed Precip Events Conditions
12:04 AM 12.2 °F -3.7 °F 6.8 °F 79% 30.04 in 2.0 mi North 15.0 mph 21.9 mph 0.00 in Snow Light Snow
12:13 AM 12.2 °F -4.3 °F 6.8 °F 79% 30.05 in 1.8 mi North 16.1 mph 25.3 mph 0.00 in Snow Light Snow
12:21 AM 12.2 °F -3.7 °F 6.8 °F 79% 30.06 in 2.5 mi North 15.0 mph 23.0 mph 0.00 in Snow Light Snow
12:29 AM 12.2 °F -3.1 °F 6.8 °F 79% 30.06 in 4.0 mi North 13.8 mph 20.7 mph 0.00 in Snow Light Snow
12:45 AM 12.2 °F -1.8 °F 6.8 °F 79% 30.07 in 1.8 mi North 11.5 mph - 0.00 in Snow Light Snow
12:54 AM 12.0 °F -2.7 °F 7.0 °F 80% 30.13 in 1.8 mi North 12.7 mph 19.6 mph 0.00 in Snow Light Snow
1:00 AM 12.2 °F -3.1 °F 6.8 °F 79% 30.07 in 3.0 mi NNW 13.8 mph 20.7 mph 0.00 in Snow Light Snow
1:54 AM 10.9 °F -4.1 °F 5.0 °F 77% 30.16 in 10.0 mi North 12.7 mph - 0.00 in   Overcast
2:54 AM 12.0 °F -2.0 °F 1.9 °F 64% 30.20 in 10.0 mi North 11.5 mph - N/A   Overcast
3:24 AM 10.4 °F -1.5 °F 3.2 °F 73% 30.16 in 1.8 mi NNW 8.1 mph - 0.00 in Snow Light Snow
3:30 AM 10.4 °F -0.4 °F 5.0 °F 79% 30.16 in 0.8 mi NNW 6.9 mph - 0.00 in Snow Light Snow
3:40 AM 10.4 °F -0.4 °F 6.8 °F 85% 30.17 in 0.8 mi NNW 6.9 mph - 0.00 in Snow Light Snow
3:45 AM 10.4 °F 0.8 °F 6.8 °F 85% 30.17 in 1.0 mi NNW 5.8 mph - 0.00 in Snow Light Snow
3:52 AM 10.4 °F -0.4 °F 6.8 °F 85% 30.17 in 1.8 mi North 6.9 mph - 0.00 in Snow Light Snow
3:54 AM 10.9 °F -2.6 °F 7.0 °F 84% 30.22 in 2.0 mi North 10.4 mph - 0.00 in Snow Light Snow
3:58 AM 10.4 °F -4.1 °F 6.8 °F 85% 30.17 in 3.0 mi NNW 11.5 mph - 0.00 in Snow Light Snow
4:54 AM 10.9 °F -4.7 °F 5.0 °F 77% 30.26 in 2.5 mi North 13.8 mph 23.0 mph 0.00 in Snow Light Snow
5:05 AM 10.4 °F -4.1 °F 5.0 °F 79% 30.21 in 1.5 mi NNW 11.5 mph 23.0 mph 0.00 in Snow Light Snow
5:10 AM 10.4 °F -3.3 °F 5.0 °F 79% 30.21 in 3.0 mi NNW 10.4 mph - 0.00 in Snow Light Snow
5:19 AM 10.4 °F -4.8 °F 5.0 °F 79% 30.21 in 2.0 mi NNW 12.7 mph - 0.00 in Snow Light Snow
5:26 AM 10.4 °F -2.4 °F 6.8 °F 85% 30.22 in 1.0 mi NNW 9.2 mph - 0.00 in Snow Light Snow
5:37 AM 10.4 °F -1.5 °F 6.8 °F 85% 30.22 in 0.8 mi NNW 8.1 mph - 0.00 in Snow Light Snow
5:47 AM 10.4 °F -2.4 °F 6.8 °F 85% 30.23 in 0.5 mi NNW 9.2 mph - 0.00 in Fog , Snow Snow
5:54 AM 10.9 °F 0.2 °F 7.0 °F 84% 30.29 in 0.5 mi NNW 6.9 mph - 0.00 in Fog , Snow Snow
6:06 AM 10.4 °F -3.3 °F 6.8 °F 85% 30.24 in 1.8 mi NW 10.4 mph - 0.00 in Snow Light Snow
6:20 AM 10.4 °F -3.3 °F 6.8 °F 85% 30.24 in 1.5 mi NW 10.4 mph - 0.00 in Snow Light Snow
6:47 AM 10.4 °F -0.4 °F 6.8 °F 85% 30.25 in 0.8 mi NW 6.9 mph - 0.00 in Snow Light Snow
6:54 AM 10.0 °F -0.9 °F 6.1 °F 84% 30.32 in 1.0 mi NW 6.9 mph - 0.00 in Snow Light Snow
7:01 AM 10.4 °F - 6.8 °F 85% 30.26 in - North - - 0.00 in   Unknown
7:22 AM 10.4 °F -3.3 °F 6.8 °F 85% 30.27 in 1.8 mi NW 10.4 mph - 0.00 in Snow Light Snow
7:30 AM 10.4 °F -2.4 °F 6.8 °F 85% 30.27 in 2.0 mi NNW 9.2 mph - 0.00 in Snow Light Snow
7:40 AM 10.4 °F -3.3 °F 3.2 °F 73% 30.28 in 3.0 mi NNW 10.4 mph 18.4 mph 0.00 in Snow Light Snow
7:45 AM 10.4 °F -0.4 °F 5.0 °F 79% 30.29 in 1.8 mi NW 6.9 mph 18.4 mph 0.00 in Snow Light Snow
7:54 AM 10.0 °F -1.9 °F 5.0 °F 80% 30.36 in 1.8 mi NW 8.1 mph - 0.00 in Snow Light Snow
8:09 AM 10.4 °F -3.3 °F 5.0 °F 79% 30.30 in 2.5 mi NW 10.4 mph - 0.00 in Snow Light Snow
8:39 AM 10.4 °F -3.3 °F 3.2 °F 73% 30.31 in 2.5 mi NNW 10.4 mph - 0.00 in Snow Light Snow
8:43 AM 10.4 °F -2.4 °F 3.2 °F 73% 30.31 in 3.0 mi NNW 9.2 mph - 0.00 in Snow Light Snow
8:54 AM 10.0 °F -2.9 °F 3.9 °F 76% 30.39 in 4.0 mi NNW 9.2 mph - 0.00 in Snow Light Snow
9:09 AM 10.4 °F -1.5 °F 3.2 °F 73% 30.33 in 2.0 mi NW 8.1 mph - 0.00 in Snow Light Snow
9:41 AM 10.4 °F -1.5 °F 5.0 °F 79% 30.34 in 1.8 mi NW 8.1 mph - 0.00 in Snow Light Snow
9:54 AM 10.9 °F -1.8 °F 5.0 °F 77% 30.41 in 1.5 mi NW 9.2 mph - 0.00 in Snow Light Snow
10:04 AM 10.4 °F -0.4 °F 5.0 °F 79% 30.35 in 2.5 mi WNW 6.9 mph - 0.00 in Snow Light Snow
10:06 AM 10.4 °F -3.3 °F 5.0 °F 79% 30.35 in 3.0 mi WNW 10.4 mph - 0.00 in Snow Light Snow
10:18 AM 10.4 °F -3.3 °F 3.2 °F 73% 30.36 in 3.0 mi NNW 10.4 mph - 0.00 in Snow Light Snow
10:36 AM 8.6 °F -5.5 °F 3.2 °F 79% 30.37 in 1.8 mi West 10.4 mph - 0.00 in Snow Light Snow
10:43 AM 8.6 °F -5.5 °F 3.2 °F 79% 30.37 in 1.5 mi WSW 10.4 mph - 0.00 in Snow Light Snow
10:54 AM 9.0 °F -4.2 °F 3.9 °F 80% 30.43 in 2.5 mi West 9.2 mph - 0.00 in Snow Light Snow
11:03 AM 8.6 °F -4.7 °F 3.2 °F 79% 30.37 in 4.0 mi West 9.2 mph - 0.00 in   Haze
11:54 AM 10.9 °F 0.2 °F 3.0 °F 70% 30.43 in 10.0 mi WNW 6.9 mph - 0.00 in   Overcast
12:09 PM 12.2 °F 0.7 °F 3.2 °F 67% 30.36 in 9.0 mi WNW 8.1 mph - N/A   Mostly Cloudy
12:54 PM 12.9 °F - 3.0 °F 65% 30.41 in 10.0 mi Calm Calm - N/A   Scattered Clouds
1:33 PM 14.0 °F 2.0 °F 3.2 °F 62% 30.35 in 10.0 mi WNW 9.2 mph - N/A   Mostly Cloudy
1:40 PM 12.2 °F 1.7 °F 1.4 °F 62% 30.35 in 10.0 mi West 6.9 mph - N/A   Scattered Clouds
1:54 PM 12.0 °F 4.1 °F -0.0 °F 59% 30.41 in 10.0 mi WNW 4.6 mph - N/A   Partly Cloudy
2:54 PM 12.9 °F 5.2 °F 1.0 °F 59% 30.40 in 10.0 mi SW 4.6 mph - N/A   Clear
3:54 PM 12.0 °F -0.4 °F -0.0 °F 59% 30.43 in 10.0 mi SW 9.2 mph - N/A   Clear
4:54 PM 10.0 °F -0.9 °F -0.9 °F 61% 30.43 in 10.0 mi SW 6.9 mph - N/A   Clear
5:54 PM 9.0 °F 2.4 °F -0.0 °F 67% 30.43 in 10.0 mi South 3.5 mph - N/A   Clear
6:54 PM 7.0 °F -1.7 °F -0.9 °F 70% 30.41 in 10.0 mi South 4.6 mph - N/A   Clear
7:54 PM 8.1 °F -0.5 °F -0.9 °F 67% 30.40 in 10.0 mi South 4.6 mph - N/A   Clear
8:54 PM 9.0 °F -0.9 °F -0.9 °F 64% 30.38 in 10.0 mi South 5.8 mph - N/A   Mostly Cloudy
9:54 PM 10.9 °F -3.4 °F -0.9 °F 59% 30.36 in 10.0 mi SSW 11.5 mph - N/A   Overcast
10:54 PM 10.9 °F -2.6 °F -0.0 °F 61% 30.34 in 10.0 mi South 10.4 mph - N/A   Overcast
11:54 PM 10.9 °F -5.4 °F 1.9 °F 67% 30.33 in 10.0 mi SSW 15.0 mph - N/A   Mostly Cloudy